Regional Weather Roundup
Issued by NWS Boston, MA

Current Version | Previous Version | Text Only | Print | Product List | Glossary Off
Versions: 1 2 3 4 5 6 7 8 9 10 11 12 13 14 15 16 17 18 19 20 21 22 23 24 25 26 27
000 ASUS41 KBOX 231710 RWRBOX REGIONAL WEATHER ROUNDUP NATIONAL WEATHER SERVICE TAUNTON MA 100 PM EDT THU MAR 23 2017 NOTE: "FAIR" INDICATES FEW OR NO CLOUDS BELOW 12,000 FEET WITH NO SIGNIFICANT WEATHER AND/OR OBSTRUCTIONS TO VISIBILITY. MAZALL-231800- EASTERN MASSACHUSETTS CITY SKY/WX TMP DP RH WIND PRES REMARKS BOSTON SUNNY 33 -1 23 NW12G24 30.45F WCI 24 BEVERLY SUNNY 32 0 25 NW17G26 30.42F WCI 21 LAWRENCE SUNNY 29 -1 27 NW17G26 30.44F WCI 17 BEDFORD SUNNY 32 -4 21 W15G23 30.43F WCI 22 BLUE HILL NOT AVBL NORWOOD SUNNY 34 -1 22 W9G21 30.45F WCI 27 MARSHFIELD SUNNY 32 -4 21 VRB7G18 30.44F WCI 26 PLYMOUTH SUNNY 32 -4 21 W20 30.45F WCI 20 TAUNTON SUNNY 33 -3 21 W13G23 30.46F WCI 24 NEW BEDFORD SUNNY 34 -2 21 W16G23 30.45F WCI 24 $$ MAZALL-231800- CAPE COD AND THE ISLANDS CITY SKY/WX TMP DP RH WIND PRES REMARKS FALMOUTH N/A N/A N/A N/A MISG N/A HYANNIS SUNNY 33 0 24 NW10G22 30.41F WCI 25 CHATHAM SUNNY 31 4 31 NW14G24 30.44F WCI 21 NANTUCKET SUNNY 31 2 29 NW20G25 30.45F WCI 19 MARTHAS VNYRD SUNNY 33 -4 20 NW20 30.46F WCI 21 $$ MAZALL-231800- CENTRAL AND WESTERN MASSACHUSETTS CITY SKY/WX TMP DP RH WIND PRES REMARKS WORCESTER SUNNY 29 -8 20 NW18G26 30.40F WCI 16 FITCHBURG SUNNY 33 1 25 NW18G26 30.44F WCI 22 ORANGE SUNNY 30 -2 25 NW22G30 30.44F WCI 17 SPRINGFIELD SUNNY 33 -2 22 W13G22 30.46F WCI 24 WESTFIELD SUNNY 34 -1 22 NW13 30.47F WCI 25 NORTH ADAMS SUNNY 28 -1 28 VRB7G18 30.49F WCI 21 PITTSFIELD SUNNY 26 -1 31 W12G22 30.45S WCI 16 $$ RIZALL-231800- RHODE ISLAND CITY SKY/WX TMP DP RH WIND PRES REMARKS PROVIDENCE SUNNY 34 -4 19 NW13G23 30.48F WCI 25 NEWPORT SUNNY 32 -1 24 NW12G22 30.47F WCI 23 BLOCK ISLAND SUNNY 31 4 31 W15G21 30.50F WCI 20 SMITHFIELD SUNNY 33 -1 23 NW15 30.45F WCI 23 WESTERLY SUNNY 34 -4 19 W9 30.50F WCI 27 $$ CTZALL-231800- CONNECTICUT CITY SKY/WX TMP DP RH WIND PRES REMARKS BRADLEY INTL SUNNY 34 -4 19 NW12G29 30.49F WCI 25 HARTFORD SUNNY 34 1 24 MISG 30.51F BRIDGEPORT SUNNY 37 -5 16 NW21G28 30.55F WCI 26 DANBURY SUNNY 31 -2 24 W6G17 30.54F WCI 25 GROTON SUNNY 35 -3 19 NW12 30.51F WCI 27 NEW HAVEN SUNNY 34 -1 22 NW12G22 30.54F WCI 25 CHESTER FAIR 32 -8 18 W10G18 30.49F WCI 24 MERIDEN SUNNY 35 -2 20 NW13G18 30.52F WCI 26 WILLIMANTIC SUNNY 33 -1 23 NW17G25 30.50F WCI 22 OXFORD SUNNY 30 -2 24 N17G30 30.51F WCI 18 $$ MEZ002-015-021-024-NHZ003-005-008-011-012-014-VTZ005-008-231800- NORTHERN NEW ENGLAND CITY SKY/WX TMP DP RH WIND PRES REMARKS PORTLAND ME SUNNY 28 0 29 NW15G28 30.38F WCI 16 BANGOR ME SUNNY 23 -1 35 NW17G30 30.30S WCI 9 CONCORD NH SUNNY 30 2 30 NW18G28 30.42F WCI 18 MANCHESTER NH NOT AVBL NASHUA NH SUNNY 32 -1 24 NW15G23 30.43 WCI 22 PORTSMOUTH NH SUNNY 31 -1 25 W15G23 30.39F WCI 20 JAFFREY NH SUNNY 29 -4 24 NW9G16 30.39F WCI 20 KEENE NH SUNNY 30 1 29 N17G25 30.45 WCI 18 BURLINGTON VT MOSUNNY 29 4 34 NW14G22 30.49F WCI 18 MT. WASHINGTON MOSUNNY -4 -9 77 NW60G76 N/A WCI -39 $$ NYZ052-076-231800- EASTERN NEW YORK CITY SKY/WX TMP DP RH WIND PRES REMARKS ALBANY MOSUNNY 31 1 28 W6 30.54F WCI 25 NEW YORK CITY SUNNY 36 0 21 NW15G21 30.58F WCI 27 $$ ANZALL-231800- MARINE OBSERVATIONS STATION/POSITION TIME TEMP WIND PRES VSBY WAVE AIR SEA DIR/SP/G HT/PER (UTC) (F) (DEG/KT/KT) (MB) (MI) (FT/S) BOSTON BUOY 1550 26 40 300/ 16/ 21 1031.2 3/ 4 BUZZARDS BAY 1600 27 300/ 17/ 20 1033.4F NANTUCKET SOUND 1650 38 1031.0F 2/ 4 MASS BAY-STELLWA 1604 27 39 300/ 16/ 19 1029.9F 4/ 6 ISLE OF SHOALS 1600 26 300/ 20/ 25 1029.7F S OF BLOCK IS 1655 40 N/A 3/ 4 $$ ......................KEY......................... SKY/WX - SKY CONDITION/PRESENT WEATHER TMP - TEMPERATURE IN FAHRENHEIT DWPT - DEWPOINT IN FAHRENHEIT RH - RELATIVE HUMIDITY IN PERCENT WIND - DIRECTION AND SPEED IN MPH PRES - MEAN SEA LEVEL PRESSURE IN INCHES OF HG WCI - WIND CHILL INDEX VSB - VISIBILITY IN MILES HX - HEAT INDEX TC - TEMPERATURE IN CELSIUS VRB - VARIABLE WIND DIRECTION N/A - NOT AVAILABLE

USA.gov is the U.S. government's official web portal to all federal, state and local government web resources and services.